#timestamp,LO_Frequency,Hit,StdDev 
1570050015.5,286047000.1,N
1570050035.3,286047002.8,N
1570050055.1,286047001.4,N
1570050075.9,286047001.7,N
1570050095.7,286047001.7,N
1570050115.6,286047003.3,N
1570050135.4,286047003.4,N
1570050155.2,286047001.6,N
1570050175.1,286047002.0,N
1570050176.0,286047002.0,N
1570050195.8,286046999.7,N
1570050215.7,286047002.3,N
1570050235.5,286047002.4,N
1570050255.3,286047003.7,N
1570050275.2,286047002.9,N
1570050295.0,286047005.3,N
1570050295.9,286047005.3,N
1570050315.7,286047005.5,N
1570050335.6,286047003.9,N
1570050355.4,286047001.5,N
1570050375.3,286047002.4,N
1570050395.1,286047004.3,N
1570050415.8,286047003.8,N
1570050435.7,286047001.7,N
1570050455.5,286047002.5,N
1570050475.4,286047003.6,N
1570050495.2,286047005.1,Y
1570050515.0,286046999.8,P
1570050515.9,286046999.8,N
1570050535.8,286047000.1,N
1570050555.6,286046999.9,N
1570050575.5,286047000.2,N
1570050595.3,286047000.1,N
1570050615.1,286047000.3,N
1570050635.9,286047000.2,N
1570050655.7,286047001.0,N
1570050675.6,286046999.5,N
1570050695.4,286046996.6,Y
1570050715.2,286046998.3,P
1570050735.1,286046998.7,N
1570050736.0,286046998.7,N
1570050755.8,286046999.0,N
1570050775.7,286046999.4,N
1570050795.5,286046998.1,N
1570050815.3,286046999.4,N
1570050835.2,286046996.8,Y
1570050855.0,286046996.5,P
1570050855.9,286046996.5,N
1570050875.7,286046996.7,N
1570050895.6,286046997.7,N
1570050915.4,286046996.7,Y
1570050935.3,286047000.7,P
1570050955.1,286046999.9,N
1570050975.8,286047001.0,N
1570050995.7,286047000.7,N
1570051015.5,286047000.1,N
1570051035.4,286047002.5,N
1570051055.2,286046999.9,N
1570051075.0,286047003.5,N
1570051075.9,286047003.5,N
1570051095.8,286047001.7,N
1570051115.6,286047002.0,N
1570051135.4,286047001.9,N
1570051155.3,286047001.4,N
1570051175.1,286047001.7,N
1570051195.9,286047002.5,N
1570051215.7,286047000.5,N
1570051235.5,286047002.0,N
1570051255.4,286047002.0,N
1570051275.2,286047002.8,N
1570051295.1,286047000.0,N
1570051296.0,286047000.0,N
1570051315.8,286047002.2,N
1570051335.6,286047003.2,N
1570051355.5,286047004.1,N
1570051375.3,286047001.9,N
1570051395.1,286047003.5,N
1570051415.9,286047004.2,N
1570051435.7,286047005.7,Y
1570051455.6,286047003.7,P
1570051475.4,286047003.9,P
1570051495.2,286047004.1,P
1570051515.1,286047004.4,Y
1570051516.0,286047004.4,P
1570051535.8,286046998.2,P
1570051555.7,286046998.8,N
1570051575.5,286046999.6,N
1570051595.3,286046999.2,N
1570051615.2,286047001.0,N
1570051635.0,286047000.5,N
1570051635.9,286047000.5,N
1570051655.8,286046999.0,N
1570051675.6,286047001.0,N
1570051695.4,286047000.2,N
1570051715.3,286047002.1,N
1570051735.1,286047000.6,N
1570051755.8,286047001.1,N
1570051775.7,286047000.9,N
1570051795.5,286046999.7,N
1570051815.4,286047002.8,N
1570051835.2,286046999.7,N
1570051855.0,286046999.8,N
1570051855.9,286046999.8,N
1570051875.8,286047001.6,N
1570051895.6,286047001.5,N
1570051915.5,286047002.2,N
1570051935.3,286047000.9,N
1570051955.1,286046999.0,N
1570051975.9,286047000.5,N
1570051995.7,286047002.5,N
1570052015.5,286047004.0,N
1570052035.4,286047005.5,Y
1570052055.2,286047001.9,P
1570052075.1,286047002.2,P
1570052076.0,286047002.2,P
1570052095.8,286047002.1,Y
1570052115.6,286046999.9,P
1570052135.5,286046999.8,N
1570052155.3,286046998.5,N
1570052175.2,286046997.2,N
1570052195.9,286046997.0,N
1570052215.7,286046997.6,N
1570052235.6,286046997.2,N
1570052255.4,286046996.5,N
1570052275.2,286046996.8,N
1570052295.1,286046996.5,N
1570052296.0,286046996.5,N
1570052315.8,286046996.9,N
1570052335.7,286046999.6,N
1570052355.5,286046999.1,N
1570052375.3,286047001.1,N
1570052395.2,286046996.5,N
1570052415.0,286046996.7,N
1570052415.9,286046996.7,N
1570052435.8,286046996.8,N
1570052455.6,286046998.1,N
1570052475.4,286046997.0,N
1570052495.3,286046997.1,N
1570052515.1,286046997.6,N
1570052535.8,286046995.2,Y
1570052555.7,286046999.5,P
1570052575.5,286047000.9,N
1570052595.4,286047000.8,N
1570052615.2,286046998.6,N
1570052635.7,286046998.2,N
1570052655.6,286047001.0,N
1570052675.4,286047000.5,N
1570052695.2,286047000.9,N
1570052715.1,286047002.5,N
1570052716.0,286047002.5,N
1570052735.8,286047002.6,N
1570052755.1,286047001.5,N
1570052775.9,286047000.0,N
1570052795.7,286047000.4,N
1570052815.6,286047000.8,N
1570052835.4,286047000.8,N
1570052855.2,286047000.4,N
1570052875.1,286047000.9,N
1570052876.0,286047000.9,N
1570052895.8,286047000.4,N
1570052915.6,286046999.7,N
1570052935.5,286047000.2,N
1570052955.3,286046999.7,N
1570052975.2,286047001.4,N
1570052995.9,286047000.1,N
1570053015.7,286047000.2,N
1570053035.6,286047000.9,N
1570053055.4,286046998.3,N
1570053075.2,286046998.8,N
1570053095.1,286046998.5,N
1570053096.0,286046998.5,N
1570053115.8,286046999.5,N
1570053135.7,286047001.2,N
1570053155.5,286046999.9,N
1570053175.3,286046998.6,N
1570053195.2,286047001.0,N
1570053215.0,286046998.2,N
1570053215.9,286046998.2,N
1570053235.8,286047002.6,N
1570053255.6,286047002.0,N
1570053275.4,286047002.0,N
1570053295.3,286047002.6,N
1570053315.1,286047000.1,N
1570053335.9,286047004.4,Y
1570053355.7,286047003.2,P
1570053375.5,286047004.3,N
1570053395.4,286047001.3,N
1570053415.2,286047004.1,N
1570053435.0,286047004.0,N
1570053436.0,286047004.0,N
1570053455.8,286047005.1,Y
1570053475.6,286047004.2,P
1570053495.5,286047004.2,P
1570053515.3,286047001.8,P
1570053535.1,286047001.9,N
1570053555.9,286047002.0,N
1570053575.7,286046999.7,N
1570053595.6,286047002.3,N
